Year,Month,Day,Hour,Minute,Value (Times are PST for temperature in C)
2016,08,17,00,00,14.70
2016,08,17,00,01,14.70
2016,08,17,00,02,14.70
2016,08,17,00,03,14.70
2016,08,17,00,04,14.70
2016,08,17,00,05,14.70
2016,08,17,00,06,14.70
2016,08,17,00,07,14.70
2016,08,17,00,08,14.70
2016,08,17,00,09,14.70
2016,08,17,00,10,14.70
2016,08,17,00,11,14.70
2016,08,17,00,12,14.70
2016,08,17,00,13,14.70
2016,08,17,00,14,14.70
2016,08,17,00,15,14.70
2016,08,17,00,16,14.60
2016,08,17,00,17,14.60
2016,08,17,00,18,14.60
2016,08,17,00,19,14.60
2016,08,17,00,20,14.60
2016,08,17,00,21,14.60
2016,08,17,00,22,14.60
2016,08,17,00,23,14.60
2016,08,17,00,24,14.60
2016,08,17,00,25,14.60
2016,08,17,00,26,14.60
2016,08,17,00,27,14.60
2016,08,17,00,28,14.60
2016,08,17,00,29,14.60
2016,08,17,00,30,14.60
2016,08,17,00,31,14.60
2016,08,17,00,32,14.60
2016,08,17,00,33,14.60
2016,08,17,00,34,14.60
2016,08,17,00,35,14.60
2016,08,17,00,36,14.60
2016,08,17,00,37,14.60
2016,08,17,00,38,14.50
2016,08,17,00,39,14.50
2016,08,17,00,40,14.50
2016,08,17,00,41,14.50
2016,08,17,00,42,14.50
2016,08,17,00,43,14.50
2016,08,17,00,44,14.60
2016,08,17,00,45,14.60
2016,08,17,00,46,14.60
2016,08,17,00,47,14.60
2016,08,17,00,48,14.60
2016,08,17,00,49,14.60
2016,08,17,00,50,14.60
2016,08,17,00,51,14.60
2016,08,17,00,52,14.50
2016,08,17,00,53,14.50
2016,08,17,00,54,14.50
2016,08,17,00,55,14.40
2016,08,17,00,56,14.40
2016,08,17,00,57,14.40
2016,08,17,00,58,14.40
2016,08,17,00,59,14.40
2016,08,17,01,00,14.40
2016,08,17,01,01,14.30
2016,08,17,01,02,14.30
2016,08,17,01,03,14.30
2016,08,17,01,04,14.30
2016,08,17,01,05,14.30
2016,08,17,01,06,14.30
2016,08,17,01,07,14.30
2016,08,17,01,08,14.20
2016,08,17,01,09,14.20
2016,08,17,01,10,14.20
2016,08,17,01,11,14.20
2016,08,17,01,12,14.20
2016,08,17,01,13,14.20
2016,08,17,01,14,14.20
2016,08,17,01,15,14.10
2016,08,17,01,16,14.10
2016,08,17,01,17,14.10
2016,08,17,01,18,14.10
2016,08,17,01,19,14.10
2016,08,17,01,20,14.10
2016,08,17,01,21,14.10
2016,08,17,01,22,14.00
2016,08,17,01,23,14.00
2016,08,17,01,24,14.00
2016,08,17,01,25,14.00
2016,08,17,01,26,13.90
2016,08,17,01,27,13.90
2016,08,17,01,28,13.90
2016,08,17,01,29,13.90
2016,08,17,01,30,13.90
2016,08,17,01,31,13.80
2016,08,17,01,32,13.80
2016,08,17,01,33,13.80
2016,08,17,01,34,13.80
2016,08,17,01,35,13.80
2016,08,17,01,36,13.80
2016,08,17,01,37,13.80
2016,08,17,01,38,13.70
2016,08,17,01,39,13.70
2016,08,17,01,40,13.70
2016,08,17,01,41,13.70
2016,08,17,01,42,13.70
2016,08,17,01,43,13.60
2016,08,17,01,44,13.60
2016,08,17,01,45,13.60
2016,08,17,01,46,13.60
2016,08,17,01,47,13.60
2016,08,17,01,48,13.50
2016,08,17,01,49,13.50
2016,08,17,01,50,13.50
2016,08,17,01,51,13.50
2016,08,17,01,52,13.40
2016,08,17,01,53,13.40
2016,08,17,01,54,13.40
2016,08,17,01,55,13.40
2016,08,17,01,56,13.40
2016,08,17,01,57,13.30
2016,08,17,01,58,13.30
2016,08,17,01,59,13.30
2016,08,17,02,00,13.30
2016,08,17,02,01,13.30
2016,08,17,02,02,13.30
2016,08,17,02,03,13.30
2016,08,17,02,04,13.30
2016,08,17,02,05,13.30
2016,08,17,02,06,13.20
2016,08,17,02,07,13.20
2016,08,17,02,08,13.20
2016,08,17,02,09,13.20
2016,08,17,02,10,13.20
2016,08,17,02,11,13.20
2016,08,17,02,12,13.10
2016,08,17,02,13,13.10
2016,08,17,02,14,13.10
2016,08,17,02,15,13.10
2016,08,17,02,16,13.10
2016,08,17,02,17,13.10
2016,08,17,02,18,13.10
2016,08,17,02,19,13.10
2016,08,17,02,20,13.10
2016,08,17,02,21,13.10
2016,08,17,02,22,13.10
2016,08,17,02,23,13.00
2016,08,17,02,24,13.00
2016,08,17,02,25,13.00
2016,08,17,02,26,13.00
2016,08,17,02,27,13.00
2016,08,17,02,28,13.00
2016,08,17,02,29,12.90
2016,08,17,02,30,12.90
2016,08,17,02,31,12.90
2016,08,17,02,32,12.90
2016,08,17,02,33,12.90
2016,08,17,02,34,12.90
2016,08,17,02,35,12.90
2016,08,17,02,36,12.80
2016,08,17,02,37,12.80
2016,08,17,02,38,12.80
2016,08,17,02,39,12.80
2016,08,17,02,40,12.80
2016,08,17,02,41,12.80
2016,08,17,02,42,12.80
2016,08,17,02,43,12.80
2016,08,17,02,44,12.80
2016,08,17,02,45,12.80
2016,08,17,02,46,12.80
2016,08,17,02,47,12.70
2016,08,17,02,48,12.70
2016,08,17,02,49,12.70
2016,08,17,02,50,12.70
2016,08,17,02,51,12.70
2016,08,17,02,52,12.70
2016,08,17,02,53,12.70
2016,08,17,02,54,12.70
2016,08,17,02,55,12.70
2016,08,17,02,56,12.70
2016,08,17,02,57,12.70
2016,08,17,02,58,12.70
2016,08,17,02,59,12.70
2016,08,17,03,00,12.70
2016,08,17,03,01,12.70
2016,08,17,03,02,12.70
2016,08,17,03,03,12.70
2016,08,17,03,04,12.70
2016,08,17,03,05,12.70
2016,08,17,03,06,12.70
2016,08,17,03,07,12.70
2016,08,17,03,08,12.70
2016,08,17,03,09,12.60
2016,08,17,03,10,12.60
2016,08,17,03,11,12.60
2016,08,17,03,12,12.60
2016,08,17,03,13,12.60
2016,08,17,03,14,12.60
2016,08,17,03,15,12.60
2016,08,17,03,16,12.60
2016,08,17,03,17,12.60
2016,08,17,03,18,12.60
2016,08,17,03,19,12.60
2016,08,17,03,20,12.60
2016,08,17,03,21,12.60
2016,08,17,03,22,12.50
2016,08,17,03,23,12.50
2016,08,17,03,24,12.50
2016,08,17,03,25,12.50
2016,08,17,03,26,12.50
2016,08,17,03,27,12.40
2016,08,17,03,28,12.40
2016,08,17,03,29,12.40
2016,08,17,03,30,12.40
2016,08,17,03,31,12.40
2016,08,17,03,32,12.40
2016,08,17,03,33,12.30
2016,08,17,03,34,12.30
2016,08,17,03,35,12.30
2016,08,17,03,36,12.30
2016,08,17,03,37,12.30
2016,08,17,03,38,12.30
2016,08,17,03,39,12.30
2016,08,17,03,40,12.30
2016,08,17,03,41,12.30
2016,08,17,03,42,12.20
2016,08,17,03,43,12.20
2016,08,17,03,44,12.20
2016,08,17,03,45,12.20
2016,08,17,03,46,12.20
2016,08,17,03,47,12.20
2016,08,17,03,48,12.20
2016,08,17,03,49,12.20
2016,08,17,03,50,12.20
2016,08,17,03,51,12.20
2016,08,17,03,52,12.20
2016,08,17,03,53,12.20
2016,08,17,03,54,12.20
2016,08,17,03,55,12.20
2016,08,17,03,56,12.20
2016,08,17,03,57,12.20
2016,08,17,03,58,12.20
2016,08,17,03,59,12.20
2016,08,17,04,00,12.20
2016,08,17,04,01,12.20
2016,08,17,04,02,12.20
2016,08,17,04,03,12.20
2016,08,17,04,04,12.20
2016,08,17,04,05,12.20
2016,08,17,04,06,12.20
2016,08,17,04,07,12.20
2016,08,17,04,08,12.10
2016,08,17,04,09,12.10
2016,08,17,04,10,12.10
2016,08,17,04,11,12.10
2016,08,17,04,12,12.10
2016,08,17,04,13,12.10
2016,08,17,04,14,12.10
2016,08,17,04,15,12.10
2016,08,17,04,16,12.20
2016,08,17,04,17,12.20
2016,08,17,04,18,12.10
2016,08,17,04,19,12.10
2016,08,17,04,20,12.10
2016,08,17,04,21,12.10
2016,08,17,04,22,12.10
2016,08,17,04,23,12.10
2016,08,17,04,24,12.10
2016,08,17,04,25,12.10
2016,08,17,04,26,12.10
2016,08,17,04,27,12.00
2016,08,17,04,28,12.00
2016,08,17,04,29,12.00
2016,08,17,04,30,12.00
2016,08,17,04,31,12.00
2016,08,17,04,32,12.00
2016,08,17,04,33,11.90
2016,08,17,04,34,12.00
2016,08,17,04,35,11.90
2016,08,17,04,36,11.90
2016,08,17,04,37,11.90
2016,08,17,04,38,11.90
2016,08,17,04,39,11.90
2016,08,17,04,40,11.90
2016,08,17,04,41,11.90
2016,08,17,04,42,11.90
2016,08,17,04,43,12.00
2016,08,17,04,44,12.00
2016,08,17,04,45,12.00
2016,08,17,04,46,12.00
2016,08,17,04,47,12.00
2016,08,17,04,48,12.10
2016,08,17,04,49,12.10
2016,08,17,04,50,12.10
2016,08,17,04,51,12.10
2016,08,17,04,52,12.10
2016,08,17,04,53,12.10
2016,08,17,04,54,12.10
2016,08,17,04,55,12.10
2016,08,17,04,56,12.00
2016,08,17,04,57,12.00
2016,08,17,04,58,12.00
2016,08,17,04,59,11.90
2016,08,17,05,00,11.90
2016,08,17,05,01,11.90
2016,08,17,05,02,11.90
2016,08,17,05,03,11.90
2016,08,17,05,04,11.80
2016,08,17,05,05,11.80
2016,08,17,05,06,11.80
2016,08,17,05,07,11.80
2016,08,17,05,08,11.80
2016,08,17,05,09,11.80
2016,08,17,05,10,11.80
2016,08,17,05,11,11.80
2016,08,17,05,12,11.70
2016,08,17,05,13,11.70
2016,08,17,05,14,11.70
2016,08,17,05,15,11.70
2016,08,17,05,16,11.70
2016,08,17,05,17,11.70
2016,08,17,05,18,11.70
2016,08,17,05,19,11.60
2016,08,17,05,20,11.60
2016,08,17,05,21,11.60
2016,08,17,05,22,11.60
2016,08,17,05,23,11.60
2016,08,17,05,24,11.60
2016,08,17,05,25,11.60
2016,08,17,05,26,11.60
2016,08,17,05,27,11.60
2016,08,17,05,28,11.60
2016,08,17,05,29,11.50
2016,08,17,05,30,11.50
2016,08,17,05,31,11.50
2016,08,17,05,32,11.40
2016,08,17,05,33,11.40
2016,08,17,05,34,11.40
2016,08,17,05,35,11.40
2016,08,17,05,36,11.40
2016,08,17,05,37,11.40
2016,08,17,05,38,11.40
2016,08,17,05,39,11.40
2016,08,17,05,40,11.40
2016,08,17,05,41,11.40
2016,08,17,05,42,11.40
2016,08,17,05,43,11.30
2016,08,17,05,44,11.30
2016,08,17,05,45,11.30
2016,08,17,05,46,11.30
2016,08,17,05,47,11.30
2016,08,17,05,48,11.30
2016,08,17,05,49,11.30
2016,08,17,05,50,11.30
2016,08,17,05,51,11.30
2016,08,17,05,52,11.30
2016,08,17,05,53,11.30
2016,08,17,05,54,11.20
2016,08,17,05,55,11.20
2016,08,17,05,56,11.20
2016,08,17,05,57,11.20
2016,08,17,05,58,11.20
2016,08,17,05,59,11.20
2016,08,17,06,00,11.10
2016,08,17,06,01,11.10
2016,08,17,06,02,11.10
2016,08,17,06,03,11.10
2016,08,17,06,04,11.10
2016,08,17,06,05,11.10
2016,08,17,06,06,11.10
2016,08,17,06,07,11.10
2016,08,17,06,08,11.10
2016,08,17,06,09,11.10
2016,08,17,06,10,11.10
2016,08,17,06,11,11.10
2016,08,17,06,12,11.10
2016,08,17,06,13,11.10
2016,08,17,06,14,11.10
2016,08,17,06,15,11.10
2016,08,17,06,16,11.10
2016,08,17,06,17,11.10
2016,08,17,06,18,11.10
2016,08,17,06,19,11.10
2016,08,17,06,20,11.10
2016,08,17,06,21,11.10
2016,08,17,06,22,11.10
2016,08,17,06,23,11.10
2016,08,17,06,24,11.20
2016,08,17,06,25,11.20
2016,08,17,06,26,11.20
2016,08,17,06,27,11.20
2016,08,17,06,28,11.20
2016,08,17,06,29,11.20
2016,08,17,06,30,11.20
2016,08,17,06,31,11.20
2016,08,17,06,32,11.30
2016,08,17,06,33,11.30
2016,08,17,06,34,11.30
2016,08,17,06,35,11.20
2016,08,17,06,36,11.20
2016,08,17,06,37,11.20
2016,08,17,06,38,11.20
2016,08,17,06,39,11.20
2016,08,17,06,40,11.20
2016,08,17,06,41,11.20
2016,08,17,06,42,11.20
2016,08,17,06,43,11.20
2016,08,17,06,44,11.20
2016,08,17,06,45,11.20
2016,08,17,06,46,11.20
2016,08,17,06,47,11.20
2016,08,17,06,48,11.20
2016,08,17,06,49,11.20
2016,08,17,06,50,11.30
2016,08,17,06,51,11.30
2016,08,17,06,52,11.30
2016,08,17,06,53,11.30
2016,08,17,06,54,11.30
2016,08,17,06,55,11.40
2016,08,17,06,56,11.40
2016,08,17,06,57,11.40
2016,08,17,06,58,11.50
2016,08,17,06,59,11.50
2016,08,17,07,00,11.50
2016,08,17,07,01,11.60
2016,08,17,07,02,11.60
2016,08,17,07,03,11.60
2016,08,17,07,04,11.70
2016,08,17,07,05,11.70
2016,08,17,07,06,11.80
2016,08,17,07,07,11.80
2016,08,17,07,08,11.80
2016,08,17,07,09,11.90
2016,08,17,07,10,11.90
2016,08,17,07,11,11.90
2016,08,17,07,12,12.00
2016,08,17,07,13,12.10
2016,08,17,07,14,12.10
2016,08,17,07,15,12.10
2016,08,17,07,16,12.20
2016,08,17,07,17,12.20
2016,08,17,07,18,12.30
2016,08,17,07,19,12.30
2016,08,17,07,20,12.30
2016,08,17,07,21,12.40
2016,08,17,07,22,12.40
2016,08,17,07,23,12.40
2016,08,17,07,24,12.40
2016,08,17,07,25,12.40
2016,08,17,07,26,12.40
2016,08,17,07,27,12.40
2016,08,17,07,28,12.50
2016,08,17,07,29,12.50
2016,08,17,07,30,12.50
2016,08,17,07,31,12.60
2016,08,17,07,32,12.60
2016,08,17,07,33,12.60
2016,08,17,07,34,12.60
2016,08,17,07,35,12.70
2016,08,17,07,36,12.70
2016,08,17,07,37,12.80
2016,08,17,07,38,12.80
2016,08,17,07,39,12.80
2016,08,17,07,40,12.90
2016,08,17,07,41,12.90
2016,08,17,07,42,12.90
2016,08,17,07,43,13.00
2016,08,17,07,44,13.00
2016,08,17,07,45,13.10
2016,08,17,07,46,13.10
2016,08,17,07,47,13.20
2016,08,17,07,48,13.20
2016,08,17,07,49,13.30
2016,08,17,07,50,13.30
2016,08,17,07,51,13.40
2016,08,17,07,52,13.40
2016,08,17,07,53,13.50
2016,08,17,07,54,13.50
2016,08,17,07,55,13.60
2016,08,17,07,56,13.60
2016,08,17,07,57,13.60
2016,08,17,07,58,13.60
2016,08,17,07,59,13.60
2016,08,17,08,00,13.60
2016,08,17,08,01,13.60
2016,08,17,08,02,13.60
2016,08,17,08,03,13.60
2016,08,17,08,04,13.60
2016,08,17,08,05,13.60
2016,08,17,08,06,13.60
2016,08,17,08,07,13.60
2016,08,17,08,08,13.50
2016,08,17,08,09,13.50
2016,08,17,08,10,13.50
2016,08,17,08,11,13.40
2016,08,17,08,12,13.40
2016,08,17,08,13,13.30
2016,08,17,08,14,13.30
2016,08,17,08,15,13.30
2016,08,17,08,16,13.30
2016,08,17,08,17,13.20
2016,08,17,08,18,13.20
2016,08,17,08,19,13.20
2016,08,17,08,20,13.10
2016,08,17,08,21,13.10
2016,08,17,08,22,13.10
2016,08,17,08,23,13.10
2016,08,17,08,24,13.10
2016,08,17,08,25,13.10
2016,08,17,08,26,13.10
2016,08,17,08,27,13.10
2016,08,17,08,28,13.20
2016,08,17,08,29,13.20
2016,08,17,08,30,13.20
2016,08,17,08,31,13.20
2016,08,17,08,32,13.20
2016,08,17,08,33,13.20
2016,08,17,08,34,13.30
2016,08,17,08,35,13.30
2016,08,17,08,36,13.30
2016,08,17,08,37,13.30
2016,08,17,08,38,13.30
2016,08,17,08,39,13.40
2016,08,17,08,40,13.40
2016,08,17,08,41,13.40
2016,08,17,08,42,13.50
2016,08,17,08,43,13.50
2016,08,17,08,44,13.60
2016,08,17,08,45,13.60
2016,08,17,08,46,13.60
2016,08,17,08,47,13.70
2016,08,17,08,48,13.70
2016,08,17,08,49,13.70
2016,08,17,08,50,13.80
2016,08,17,08,51,13.80
2016,08,17,08,52,13.80
2016,08,17,08,53,13.90
2016,08,17,08,54,14.00
2016,08,17,08,55,14.00
2016,08,17,08,56,14.10
2016,08,17,08,57,14.10
2016,08,17,08,58,14.20
2016,08,17,08,59,14.30
2016,08,17,09,00,14.30
2016,08,17,09,01,14.40
2016,08,17,09,02,14.40
2016,08,17,09,03,14.50
2016,08,17,09,04,14.60
2016,08,17,09,05,14.70
2016,08,17,09,06,14.80
2016,08,17,09,07,14.80
2016,08,17,09,08,14.90
2016,08,17,09,09,15.00
2016,08,17,09,10,15.00
2016,08,17,09,11,15.10
2016,08,17,09,12,15.20
2016,08,17,09,13,15.30
2016,08,17,09,14,15.40
2016,08,17,09,15,15.50
2016,08,17,09,16,15.60
2016,08,17,09,17,15.70
2016,08,17,09,18,15.80
2016,08,17,09,19,15.90
2016,08,17,09,20,16.00
2016,08,17,09,21,16.10
2016,08,17,09,22,16.10
2016,08,17,09,23,16.20
2016,08,17,09,24,16.30
2016,08,17,09,25,16.40
2016,08,17,09,26,16.40
2016,08,17,09,27,16.50
2016,08,17,09,28,16.60
2016,08,17,09,29,16.60
2016,08,17,09,30,16.70
2016,08,17,09,31,16.70
2016,08,17,09,32,16.70
2016,08,17,09,33,16.70
2016,08,17,09,34,16.70
2016,08,17,09,35,16.80
2016,08,17,09,36,16.80
2016,08,17,09,37,16.90
2016,08,17,09,38,16.90
2016,08,17,09,39,17.00
2016,08,17,09,40,17.00
2016,08,17,09,41,17.10
2016,08,17,09,42,17.10
2016,08,17,09,43,17.10
2016,08,17,09,44,17.20
2016,08,17,09,45,17.20
2016,08,17,09,46,17.30
2016,08,17,09,47,17.30
2016,08,17,09,48,17.40
2016,08,17,09,49,17.40
2016,08,17,09,50,17.40
2016,08,17,09,51,17.50
2016,08,17,09,52,17.50
2016,08,17,09,53,17.60
2016,08,17,09,54,17.60
2016,08,17,09,55,17.60
2016,08,17,09,56,17.70
2016,08,17,09,57,17.70
2016,08,17,09,58,17.70
2016,08,17,09,59,17.70
2016,08,17,10,00,17.60
2016,08,17,10,01,17.50
2016,08,17,10,02,17.40
2016,08,17,10,03,17.30
2016,08,17,10,04,17.20
2016,08,17,10,05,17.10
2016,08,17,10,06,17.00
2016,08,17,10,07,16.90
2016,08,17,10,08,16.90
2016,08,17,10,09,16.80
2016,08,17,10,10,16.70
2016,08,17,10,11,16.70
2016,08,17,10,12,16.70
2016,08,17,10,13,16.60
2016,08,17,10,14,16.60
2016,08,17,10,15,16.60
2016,08,17,10,16,16.70
2016,08,17,10,17,16.70
2016,08,17,10,18,16.70
2016,08,17,10,19,16.70
2016,08,17,10,20,16.80
2016,08,17,10,21,16.80
2016,08,17,10,22,16.80
2016,08,17,10,23,16.80
2016,08,17,10,24,16.70
2016,08,17,10,25,16.70
2016,08,17,10,26,16.70
2016,08,17,10,27,16.60
2016,08,17,10,28,16.60
2016,08,17,10,29,16.60
2016,08,17,10,30,16.60
2016,08,17,10,31,16.60
2016,08,17,10,32,16.60
2016,08,17,10,33,16.60
2016,08,17,10,34,16.60
2016,08,17,10,35,16.60
2016,08,17,10,36,16.60
2016,08,17,10,37,16.70
2016,08,17,10,38,16.60
2016,08,17,10,39,16.60
2016,08,17,10,40,16.60
2016,08,17,10,41,16.60
2016,08,17,10,42,16.60
2016,08,17,10,43,16.60
2016,08,17,10,44,16.60
2016,08,17,10,45,16.50
2016,08,17,10,46,16.50
2016,08,17,10,47,16.50
2016,08,17,10,48,16.40
2016,08,17,10,49,16.30
2016,08,17,10,50,16.30
2016,08,17,10,51,16.20
2016,08,17,10,52,16.20
2016,08,17,10,53,16.20
2016,08,17,10,54,16.10
2016,08,17,10,55,16.10
2016,08,17,10,56,16.10
2016,08,17,10,57,16.00
2016,08,17,10,58,16.00
2016,08,17,10,59,16.00
2016,08,17,11,00,16.10
2016,08,17,11,01,16.20
2016,08,17,11,02,16.20
2016,08,17,11,03,16.30
2016,08,17,11,04,16.30
2016,08,17,11,05,16.30
2016,08,17,11,06,16.40
2016,08,17,11,07,16.50
2016,08,17,11,08,16.50
2016,08,17,11,09,16.60
2016,08,17,11,10,16.70
2016,08,17,11,11,16.70
2016,08,17,11,12,16.60
2016,08,17,11,13,16.50
2016,08,17,11,14,16.50
2016,08,17,11,15,16.50
2016,08,17,11,16,16.60
2016,08,17,11,17,16.60
2016,08,17,11,18,16.60
2016,08,17,11,19,16.70
2016,08,17,11,20,16.70
2016,08,17,11,21,16.80
2016,08,17,11,22,16.90
2016,08,17,11,23,16.90
2016,08,17,11,24,16.90
2016,08,17,11,25,16.90
2016,08,17,11,26,16.90
2016,08,17,11,27,16.80
2016,08,17,11,28,16.80
2016,08,17,11,29,16.80
2016,08,17,11,30,16.80
2016,08,17,11,31,16.80
2016,08,17,11,32,16.80
2016,08,17,11,33,16.80
2016,08,17,11,34,16.90
2016,08,17,11,35,16.90
2016,08,17,11,36,16.90
2016,08,17,11,37,16.90
2016,08,17,11,38,16.90
2016,08,17,11,39,16.90
2016,08,17,11,40,16.90
2016,08,17,11,41,17.00
2016,08,17,11,42,17.00
2016,08,17,11,43,16.90
2016,08,17,11,44,17.00
2016,08,17,11,45,17.10
2016,08,17,11,46,17.10
2016,08,17,11,47,17.10
2016,08,17,11,48,17.20
2016,08,17,11,49,17.20
2016,08,17,11,50,17.30
2016,08,17,11,51,17.30
2016,08,17,11,52,17.40
2016,08,17,11,53,17.40
2016,08,17,11,54,17.50
2016,08,17,11,55,17.50
2016,08,17,11,56,17.60
2016,08,17,11,57,17.60
2016,08,17,11,58,17.60
2016,08,17,11,59,17.60
2016,08,17,12,00,17.60
2016,08,17,12,01,17.60
2016,08,17,12,02,17.60
2016,08,17,12,03,17.70
2016,08,17,12,04,17.70
2016,08,17,12,05,17.80
2016,08,17,12,06,17.90
2016,08,17,12,07,17.90
2016,08,17,12,08,18.00
2016,08,17,12,09,18.00
2016,08,17,12,10,18.10
2016,08,17,12,11,18.10
2016,08,17,12,12,18.10
2016,08,17,12,13,18.00
2016,08,17,12,14,18.00
2016,08,17,12,15,17.90
2016,08,17,12,16,18.00
2016,08,17,12,17,18.00
2016,08,17,12,18,18.00
2016,08,17,12,19,18.10
2016,08,17,12,20,18.10
2016,08,17,12,21,18.10
2016,08,17,12,22,18.20
2016,08,17,12,23,18.20
2016,08,17,12,24,18.30
2016,08,17,12,25,18.30
2016,08,17,12,26,18.30
2016,08,17,12,27,18.40
2016,08,17,12,28,18.40
2016,08,17,12,29,18.40
2016,08,17,12,30,18.40
2016,08,17,12,31,18.40
2016,08,17,12,32,18.30
2016,08,17,12,33,18.30
2016,08,17,12,34,18.30
2016,08,17,12,35,18.30
2016,08,17,12,36,18.40
2016,08,17,12,37,18.40
2016,08,17,12,38,18.50
2016,08,17,12,39,18.50
2016,08,17,12,40,18.50
2016,08,17,12,41,18.60
2016,08,17,12,42,18.70
2016,08,17,12,43,18.70
2016,08,17,12,44,18.70
2016,08,17,12,45,18.70
2016,08,17,12,46,18.70
2016,08,17,12,47,18.60
2016,08,17,12,48,18.60
2016,08,17,12,49,18.70
2016,08,17,12,50,18.70
2016,08,17,12,51,18.80
2016,08,17,12,52,18.80
2016,08,17,12,53,18.90
2016,08,17,12,54,18.90
2016,08,17,12,55,19.00
2016,08,17,12,56,19.10
2016,08,17,12,57,19.10
2016,08,17,12,58,19.20
2016,08,17,12,59,19.20
2016,08,17,13,00,19.30
2016,08,17,13,01,19.30
2016,08,17,13,02,19.30
2016,08,17,13,03,19.30
2016,08,17,13,04,19.40
2016,08,17,13,05,19.40
2016,08,17,13,06,19.40
2016,08,17,13,07,19.50
2016,08,17,13,08,19.40
2016,08,17,13,09,19.40
2016,08,17,13,10,19.40
2016,08,17,13,11,19.40
2016,08,17,13,12,19.50
2016,08,17,13,13,19.50
2016,08,17,13,14,19.60
2016,08,17,13,15,19.60
2016,08,17,13,16,19.60
2016,08,17,13,17,19.70
2016,08,17,13,18,19.70
2016,08,17,13,19,19.80
2016,08,17,13,20,19.80
2016,08,17,13,21,19.80
2016,08,17,13,22,19.90
2016,08,17,13,23,19.90
2016,08,17,13,24,19.80
2016,08,17,13,25,19.80
2016,08,17,13,26,19.80
2016,08,17,13,27,19.80
2016,08,17,13,28,19.70
2016,08,17,13,29,19.60
2016,08,17,13,30,19.50
2016,08,17,13,31,19.50
2016,08,17,13,32,19.50
2016,08,17,13,33,19.60
2016,08,17,13,34,19.60
2016,08,17,13,35,19.70
2016,08,17,13,36,19.70
2016,08,17,13,37,19.80
2016,08,17,13,38,19.80
2016,08,17,13,39,19.80
2016,08,17,13,40,19.70
2016,08,17,13,41,19.70
2016,08,17,13,42,19.70
2016,08,17,13,43,19.70
2016,08,17,13,44,19.70
2016,08,17,13,45,19.80
2016,08,17,13,46,19.80
2016,08,17,13,47,19.90
2016,08,17,13,48,20.00
2016,08,17,13,49,20.00
2016,08,17,13,50,20.10
2016,08,17,13,51,20.20
2016,08,17,13,52,20.20
2016,08,17,13,53,20.30
2016,08,17,13,54,20.40
2016,08,17,13,55,20.50
2016,08,17,13,56,20.50
2016,08,17,13,57,20.60
2016,08,17,13,58,20.60
2016,08,17,13,59,20.70
2016,08,17,14,00,20.70
2016,08,17,14,01,20.80
2016,08,17,14,02,20.80
2016,08,17,14,03,20.90
2016,08,17,14,04,21.00
2016,08,17,14,05,21.00
2016,08,17,14,06,21.10
2016,08,17,14,07,21.10
2016,08,17,14,08,21.10
2016,08,17,14,09,21.10
2016,08,17,14,10,21.10
2016,08,17,14,11,21.10
2016,08,17,14,12,21.10
2016,08,17,14,13,21.10
2016,08,17,14,14,21.20
2016,08,17,14,15,21.20
2016,08,17,14,16,21.20
2016,08,17,14,17,21.20
2016,08,17,14,18,21.20
2016,08,17,14,19,21.20
2016,08,17,14,20,21.20
2016,08,17,14,21,21.10
2016,08,17,14,22,21.10
2016,08,17,14,23,21.20
2016,08,17,14,24,21.20
2016,08,17,14,25,21.30
2016,08,17,14,26,21.30
2016,08,17,14,27,21.30
2016,08,17,14,28,21.30
2016,08,17,14,29,21.30
2016,08,17,14,30,21.20
2016,08,17,14,31,21.20
2016,08,17,14,32,21.20
2016,08,17,14,33,21.20
2016,08,17,14,34,21.30
2016,08,17,14,35,21.30
2016,08,17,14,36,21.30
2016,08,17,14,37,21.40
2016,08,17,14,38,21.50
2016,08,17,14,39,21.60
2016,08,17,14,40,21.70
2016,08,17,14,41,21.80
2016,08,17,14,42,21.90
2016,08,17,14,43,22.00
2016,08,17,14,44,22.00
2016,08,17,14,45,22.10
2016,08,17,14,46,22.00
2016,08,17,14,47,21.90
2016,08,17,14,48,21.90
2016,08,17,14,49,21.80
2016,08,17,14,50,21.80
2016,08,17,14,51,21.70
2016,08,17,14,52,21.70
2016,08,17,14,53,21.60
2016,08,17,14,54,21.40
2016,08,17,14,55,21.30
2016,08,17,14,56,21.10
2016,08,17,14,57,21.00
2016,08,17,14,58,20.90
2016,08,17,14,59,20.90
2016,08,17,15,00,20.90
2016,08,17,15,01,20.90
2016,08,17,15,02,20.80
2016,08,17,15,03,20.80
2016,08,17,15,04,20.80
2016,08,17,15,05,20.80
2016,08,17,15,06,20.80
2016,08,17,15,07,20.80
2016,08,17,15,08,20.90
2016,08,17,15,09,20.90
2016,08,17,15,10,20.90
2016,08,17,15,11,20.90
2016,08,17,15,12,21.00
2016,08,17,15,13,21.00
2016,08,17,15,14,20.90
2016,08,17,15,15,20.90
2016,08,17,15,16,21.00
2016,08,17,15,17,21.00
2016,08,17,15,18,21.00
2016,08,17,15,19,21.10
2016,08,17,15,20,21.10
2016,08,17,15,21,21.10
2016,08,17,15,22,21.10
2016,08,17,15,23,21.10
2016,08,17,15,24,21.20
2016,08,17,15,25,21.30
2016,08,17,15,26,21.40
2016,08,17,15,27,21.40
2016,08,17,15,28,21.50
2016,08,17,15,29,21.70
2016,08,17,15,30,21.80
2016,08,17,15,31,22.00
2016,08,17,15,32,22.10
2016,08,17,15,33,22.20
2016,08,17,15,34,22.30
2016,08,17,15,35,22.40
2016,08,17,15,36,22.50
2016,08,17,15,37,22.50
2016,08,17,15,38,22.50
2016,08,17,15,39,22.40
2016,08,17,15,40,22.40
2016,08,17,15,41,22.50
2016,08,17,15,42,22.50
2016,08,17,15,43,22.60
2016,08,17,15,44,22.60
2016,08,17,15,45,22.70
2016,08,17,15,46,22.70
2016,08,17,15,47,22.70
2016,08,17,15,48,22.70
2016,08,17,15,49,22.70
2016,08,17,15,50,22.60
2016,08,17,15,51,22.60
2016,08,17,15,52,22.60
2016,08,17,15,53,22.60
2016,08,17,15,54,22.60
2016,08,17,15,55,22.60
2016,08,17,15,56,22.50
2016,08,17,15,57,22.50
2016,08,17,15,58,22.40
2016,08,17,15,59,22.40
2016,08,17,16,00,22.30
2016,08,17,16,01,22.20
2016,08,17,16,02,22.20
2016,08,17,16,03,22.10
2016,08,17,16,04,22.00
2016,08,17,16,05,22.00
2016,08,17,16,06,22.00
2016,08,17,16,07,21.90
2016,08,17,16,08,21.90
2016,08,17,16,09,21.90
2016,08,17,16,10,21.80
2016,08,17,16,11,21.70
2016,08,17,16,12,21.50
2016,08,17,16,13,21.30
2016,08,17,16,14,21.10
2016,08,17,16,15,20.90
2016,08,17,16,16,20.70
2016,08,17,16,17,20.50
2016,08,17,16,18,20.30
2016,08,17,16,19,20.20
2016,08,17,16,20,20.10
2016,08,17,16,21,20.00
2016,08,17,16,22,19.90
2016,08,17,16,23,19.90
2016,08,17,16,24,19.90
2016,08,17,16,25,19.90
2016,08,17,16,26,19.90
2016,08,17,16,27,19.90
2016,08,17,16,28,20.00
2016,08,17,16,29,19.90
2016,08,17,16,30,20.00
2016,08,17,16,31,20.00
2016,08,17,16,32,20.00
2016,08,17,16,33,20.00
2016,08,17,16,34,19.90
2016,08,17,16,35,19.90
2016,08,17,16,36,19.90
2016,08,17,16,37,20.00
2016,08,17,16,38,20.10
2016,08,17,16,39,20.10
2016,08,17,16,40,20.20
2016,08,17,16,41,20.20
2016,08,17,16,42,20.30
2016,08,17,16,43,20.30
2016,08,17,16,44,20.30
2016,08,17,16,45,20.30
2016,08,17,16,46,20.20
2016,08,17,16,47,20.20
2016,08,17,16,48,20.10
2016,08,17,16,49,20.00
2016,08,17,16,50,19.90
2016,08,17,16,51,19.80
2016,08,17,16,52,19.80
2016,08,17,16,53,19.70
2016,08,17,16,54,19.70
2016,08,17,16,55,19.70
2016,08,17,16,56,19.70
2016,08,17,16,57,19.60
2016,08,17,16,58,19.50
2016,08,17,16,59,19.40
2016,08,17,17,00,19.40
2016,08,17,17,01,19.30
2016,08,17,17,02,19.20
2016,08,17,17,03,19.20
2016,08,17,17,04,19.20
2016,08,17,17,05,19.20
2016,08,17,17,06,19.20
2016,08,17,17,07,19.20
2016,08,17,17,08,19.20
2016,08,17,17,09,19.20
2016,08,17,17,10,19.20
2016,08,17,17,11,19.10
2016,08,17,17,12,19.10
2016,08,17,17,13,19.10
2016,08,17,17,14,19.20
2016,08,17,17,15,19.20
2016,08,17,17,16,19.20
2016,08,17,17,17,19.20
2016,08,17,17,18,19.20
2016,08,17,17,19,19.10